• In Netherlands
  • List of Countries
  • For 7 days
  • Water Temperature
  • Satellite Maps
  • Weather Map
  • Weather Widgets
  • user-avatar
    Login

    Hourly Weather Parakou

    Today, 16 January, Monday

    Time Temperature Precipitation Wind Pressure Humidity
    00:00 +22°C° 0 mm 1 mps 726 mmHg 26%
    01:00 +21°C° 0 mm 1 mps 725 mmHg 28%
    02:00 +21°C° 0 mm 1 mps 725 mmHg 29%
    03:00 +20°C° 0 mm 1 mps 725 mmHg 31%
    04:00 +20°C° 0 mm 1 mps 725 mmHg 30%
    05:00 +20°C° 0 mm 1 mps 725 mmHg 30%
    06:00 +20°C° 0 mm 1 mps 725 mmHg 29%
    07:00 +24°C° 0 mm 1 mps 726 mmHg 24%
    08:00 +28°C° 0 mm 1 mps 727 mmHg 18%
    09:00 +32°C° 0 mm 1 mps 727 mmHg 13%
    10:00 +35°C° 0 mm 1 mps 727 mmHg 12%
    11:00 +39°C° 0 mm 1 mps 727 mmHg 10%
    12:00 +42°C° 0 mm 1 mps 727 mmHg 9%
    13:00 +39°C° 0 mm 0 mps 726 mmHg 9%
    14:00 +39°C° 0 mm 0 mps 725 mmHg 9%
    15:00 +39°C° 0 mm 0 mps 724 mmHg 9%
    16:00 +36°C° 0 mm 1 mps 724 mmHg 13%
    17:00 +32°C° 0 mm 1 mps 724 mmHg 17%
    18:00 +27°C° 0 mm 1 mps 723 mmHg 21%
    19:00 +26°C° 0 mm 1 mps 724 mmHg 23%
    20:00 +25°C° 0 mm 1 mps 724 mmHg 25%
    21:00 +24°C° 0 mm 1 mps 725 mmHg 27%
    22:00 +23°C° 0 mm 1 mps 725 mmHg 28%
    23:00 +22°C° 0 mm 1 mps 725 mmHg 29%

    Tomorrow, 17 January, Tuesday

    Time Temperature Precipitation Wind Pressure Humidity
    00:00 +22°C° 0 mm 1 mps 725 mmHg 31%
    01:00 +22°C° 0 mm 1 mps 725 mmHg 32%
    02:00 +22°C° 0 mm 1 mps 725 mmHg 33%
    03:00 +21°C° 0 mm 2 mps 725 mmHg 35%
    04:00 +21°C° 0 mm 1 mps 725 mmHg 44%
    05:00 +20°C° 0 mm 1 mps 725 mmHg 53%
    06:00 +19°C° 0 mm 1 mps 725 mmHg 63%
    07:00 +23°C° 0 mm 1 mps 726 mmHg 52%
    08:00 +28°C° 0 mm 1 mps 727 mmHg 41%
    09:00 +30°C° 0 mm 0 mps 728 mmHg 31%
    10:00 +35°C° 0 mm 1 mps 727 mmHg 25%
    11:00 +37°C° 0 mm 1 mps 727 mmHg 19%
    12:00 +41°C° 0 mm 1 mps 726 mmHg 13%
    13:00 +41°C° 0 mm 1 mps 725 mmHg 12%
    14:00 +42°C° 0 mm 1 mps 725 mmHg 11%
    15:00 +39°C° 0 mm 0 mps 724 mmHg 11%
    16:00 +37°C° 0 mm 1 mps 723 mmHg 15%
    17:00 +32°C° 0 mm 1 mps 723 mmHg 20%
    18:00 +27°C° 0 mm 1 mps 723 mmHg 24%
    19:00 +27°C° 0 mm 1 mps 723 mmHg 26%
    20:00 +26°C° 0 mm 1 mps 724 mmHg 28%
    21:00 +25°C° 0 mm 1 mps 725 mmHg 30%
    22:00 +25°C° 0 mm 1 mps 725 mmHg 31%
    23:00 +24°C° 0 mm 1 mps 725 mmHg 32%

    Day after tomorrow, 18 January, Wednesday

    Time Temperature Precipitation Wind Pressure Humidity
    00:00 +24°C° 0 mm 1 mps 725 mmHg 33%
    01:00 +24°C° 0 mm 2 mps 725 mmHg 45%
    02:00 +24°C° 0 mm 2 mps 725 mmHg 57%
    03:00 +23°C° 0 mm 2 mps 725 mmHg 68%
    04:00 +23°C° 0 mm 2 mps 725 mmHg 77%
    05:00 +22°C° 0 mm 1 mps 725 mmHg 86%
    06:00 +22°C° 0 mm 1 mps 725 mmHg 95%
    07:00 +24°C° 0 mm 1 mps 726 mmHg 84%
    08:00 +27°C° 0 mm 2 mps 727 mmHg 72%
    09:00 +30°C° 0 mm 2 mps 728 mmHg 61%
    10:00 +33°C° 0 mm 1 mps 727 mmHg 48%
    11:00 +37°C° 0 mm 1 mps 727 mmHg 34%
    12:00 +39°C° 0 mm 0 mps 727 mmHg 21%
    13:00 +39°C° 0 mm 0 mps 726 mmHg 19%
    14:00 +39°C° 0 mm 0 mps 725 mmHg 17%
    15:00 +40°C° 0 mm 0 mps 724 mmHg 15%
    16:00 +39°C° 0 mm 1 mps 724 mmHg 20%
    17:00 +34°C° 0 mm 1 mps 724 mmHg 24%
    18:00 +31°C° 0 mm 1 mps 724 mmHg 29%
    19:00 +29°C° 0 mm 1 mps 724 mmHg 32%
    20:00 +28°C° 0 mm 1 mps 725 mmHg 35%
    21:00 +27°C° 0 mm 1 mps 726 mmHg 38%
    22:00 +27°C° 0 mm 2 mps 726 mmHg 45%
    23:00 +26°C° 0 mm 2 mps 726 mmHg 51%

    19 January, Thursday

    Time Temperature Precipitation Wind Pressure Humidity
    00:00 +26°C° 0 mm 2 mps 726 mmHg 58%
    01:00 +26°C° 0 mm 2 mps 726 mmHg 68%
    02:00 +25°C° 0 mm 2 mps 725 mmHg 77%
    03:00 +24°C° 0 mm 2 mps 725 mmHg 87%
    04:00 +24°C° 0 mm 2 mps 725 mmHg 90%
    05:00 +24°C° 0 mm 2 mps 726 mmHg 93%
    06:00 +23°C° 0 mm 2 mps 726 mmHg 96%
    07:00 +25°C° 0 mm 2 mps 727 mmHg 85%
    08:00 +28°C° 0 mm 2 mps 728 mmHg 74%
    09:00 +30°C° 0 mm 3 mps 728 mmHg 63%
    10:00 +34°C° 0 mm 2 mps 728 mmHg 52%
    11:00 +37°C° 0 mm 2 mps 727 mmHg 41%
    12:00 +39°C° 0 mm 1 mps 727 mmHg 29%
    13:00 +40°C° 0 mm 1 mps 726 mmHg 25%
    14:00 +41°C° 0 mm 1 mps 725 mmHg 22%
    15:00 +40°C° 0 mm 0 mps 724 mmHg 18%
    16:00 +36°C° 0 mm 0 mps 724 mmHg 22%
    17:00 +34°C° 0 mm 1 mps 724 mmHg 27%
    18:00 +31°C° 0 mm 1 mps 724 mmHg 32%
    19:00 +30°C° 0 mm 1 mps 725 mmHg 34%
    20:00 +30°C° 0 mm 1 mps 726 mmHg 37%
    21:00 +29°C° 0 mm 2 mps 726 mmHg 39%
    22:00 +28°C° 0 mm 2 mps 726 mmHg 47%
    23:00 +27°C° 0 mm 2 mps 726 mmHg 54%

    20 January, Friday

    Time Temperature Precipitation Wind Pressure Humidity
    00:00 +26°C° 0 mm 2 mps 726 mmHg 62%
    01:00 +26°C° 0 mm 2 mps 726 mmHg 69%
    02:00 +25°C° 0 mm 2 mps 725 mmHg 75%
    03:00 +25°C° 0 mm 2 mps 725 mmHg 82%
    04:00 +25°C° 0 mm 2 mps 726 mmHg 87%
    05:00 +24°C° 0 mm 2 mps 726 mmHg 92%
    06:00 +23°C° 0 mm 2 mps 726 mmHg 96%
    07:00 +26°C° 0 mm 2 mps 727 mmHg 85%
    08:00 +28°C° 0 mm 2 mps 727 mmHg 74%
    09:00 +30°C° 0 mm 3 mps 728 mmHg 63%
    10:00 +35°C° 0 mm 2 mps 727 mmHg 50%
    11:00 +39°C° 0 mm 1 mps 727 mmHg 37%
    12:00 +39°C° 0 mm 0 mps 726 mmHg 24%
    13:00 +42°C° 0 mm 1 mps 725 mmHg 22%
    14:00 +42°C° 0 mm 1 mps 725 mmHg 21%
    15:00 +42°C° 0 mm 1 mps 724 mmHg 19%
    16:00 +39°C° 0 mm 1 mps 724 mmHg 23%
    17:00 +35°C° 0 mm 1 mps 724 mmHg 28%
    18:00 +32°C° 0 mm 1 mps 724 mmHg 32%
    19:00 +31°C° 0 mm 2 mps 725 mmHg 35%
    20:00 +31°C° 0 mm 2 mps 725 mmHg 37%
    21:00 +31°C° 0 mm 2 mps 726 mmHg 40%
    22:00 +30°C° 0 mm 2 mps 726 mmHg 47%
    23:00 +29°C° 0 mm 3 mps 726 mmHg 55%

    21 January, Saturday

    Time Temperature Precipitation Wind Pressure Humidity
    00:00 +29°C° 0 mm 3 mps 726 mmHg 63%
    01:00 +28°C° 0 mm 3 mps 725 mmHg 71%
    02:00 +27°C° 0 mm 2 mps 725 mmHg 78%
    03:00 +26°C° 0 mm 2 mps 725 mmHg 85%
    04:00 +25°C° 0 mm 2 mps 725 mmHg 88%
    05:00 +25°C° 0 mm 2 mps 726 mmHg 91%
    06:00 +24°C° 0 mm 2 mps 726 mmHg 95%
    07:00 +26°C° 0 mm 2 mps 726 mmHg 83%
    08:00 +29°C° 0 mm 2 mps 727 mmHg 72%
    09:00 +31°C° 0 mm 2 mps 728 mmHg 61%
    10:00 +35°C° 0 mm 2 mps 727 mmHg 50%
    11:00 +38°C° 0 mm 2 mps 726 mmHg 39%
    12:00 +40°C° 0 mm 1 mps 726 mmHg 28%
    13:00 +41°C° 0 mm 1 mps 725 mmHg 25%
    14:00 +42°C° 0 mm 1 mps 724 mmHg 21%
    15:00 +41°C° 0 mm 0 mps 723 mmHg 18%
    16:00 +40°C° 0 mm 1 mps 724 mmHg 22%
    17:00 +36°C° 0 mm 1 mps 724 mmHg 26%
    18:00 +33°C° 0 mm 1 mps 724 mmHg 31%
    19:00 +32°C° 0 mm 2 mps 724 mmHg 33%
    20:00 +32°C° 0 mm 2 mps 725 mmHg 35%
    21:00 +31°C° 0 mm 2 mps 726 mmHg 37%
    22:00 +30°C° 0 mm 2 mps 726 mmHg 45%
    23:00 +30°C° 0 mm 3 mps 726 mmHg 53%
    Show more